When you browse on this site, cookies collect data to enhance your experience and personalize the content and advertising you see.
Visit our Privacy Policy to learn more. By continuing to use the site, you agree to this use of cookies and data.
  • In Romania
  • List of Countries
  • For 7 days
  • Water Temperature
  • Satellite Maps
  • Weather Map
  • Weather Widgets
  • user-avatar
    Login

    Hourly Weather Dunedin

    Today, 20 July, Saturday

    Time Temperature Precipitation Wind Pressure Humidity
    00:00 +7°C° 0.1 mm 3 mps 741 mmHg 97%
    01:00 +6°C° 0.1 mm 4 mps 741 mmHg 97%
    02:00 +6°C° 0.1 mm 4 mps 741 mmHg 96%
    03:00 +6°C° 0.9 mm 4 mps 740 mmHg 97%
    04:00 +6°C° 0.9 mm 4 mps 740 mmHg 97%
    05:00 +6°C° 0 mm 4 mps 740 mmHg 98%
    06:00 +7°C° 2 mm 4 mps 740 mmHg 98%
    07:00 +7°C° 2 mm 4 mps 740 mmHg 98%
    08:00 +7°C° 2 mm 4 mps 741 mmHg 98%
    09:00 +7°C° 1 mm 4 mps 741 mmHg 98%
    10:00 +7°C° 1 mm 4 mps 741 mmHg 98%
    11:00 +7°C° 0 mm 5 mps 741 mmHg 96%
    12:00 +7°C° 0.4 mm 5 mps 741 mmHg 96%
    13:00 +7°C° 0.4 mm 5 mps 741 mmHg 97%
    14:00 +8°C° 0.4 mm 5 mps 741 mmHg 97%
    15:00 +8°C° 0.3 mm 5 mps 742 mmHg 97%
    16:00 +8°C° 0.3 mm 4 mps 742 mmHg 97%
    17:00 +7°C° 0 mm 4 mps 743 mmHg 97%
    18:00 +8°C° 0.5 mm 3 mps 743 mmHg 98%
    19:00 +8°C° 0.5 mm 3 mps 744 mmHg 98%
    20:00 +8°C° 0.5 mm 2 mps 744 mmHg 98%
    21:00 +8°C° 0.3 mm 2 mps 744 mmHg 99%
    22:00 +8°C° 0.3 mm 2 mps 745 mmHg 99%
    23:00 +8°C° 0.3 mm 2 mps 745 mmHg 99%

    Tomorrow, 21 July, Sunday

    Time Temperature Precipitation Wind Pressure Humidity
    00:00 +8°C° 0.2 mm 2 mps 745 mmHg 99%
    01:00 +8°C° 0.2 mm 2 mps 746 mmHg 99%
    02:00 +8°C° 0.2 mm 3 mps 746 mmHg 99%
    03:00 +8°C° 0.5 mm 3 mps 746 mmHg 99%
    04:00 +9°C° 0.5 mm 3 mps 746 mmHg 99%
    05:00 +8°C° 0.5 mm 4 mps 746 mmHg 99%
    06:00 +8°C° 0.1 mm 4 mps 747 mmHg 99%
    07:00 +8°C° 0.1 mm 4 mps 747 mmHg 99%
    08:00 +8°C° 0.1 mm 4 mps 747 mmHg 98%
    09:00 +8°C° 0.2 mm 4 mps 747 mmHg 98%
    10:00 +8°C° 0.2 mm 4 mps 747 mmHg 98%
    11:00 +8°C° 0.2 mm 4 mps 748 mmHg 98%
    12:00 +8°C° 0.7 mm 4 mps 747 mmHg 98%
    13:00 +8°C° 0.7 mm 4 mps 747 mmHg 98%
    14:00 +8°C° 0.7 mm 4 mps 747 mmHg 98%
    15:00 +9°C° 0.3 mm 3 mps 747 mmHg 98%
    16:00 +9°C° 0.3 mm 3 mps 747 mmHg 99%
    17:00 +9°C° 0.3 mm 2 mps 747 mmHg 99%
    18:00 +9°C° 0 mm 2 mps 748 mmHg 99%
    19:00 +9°C° 0 mm 2 mps 748 mmHg 99%
    20:00 +9°C° 0 mm 2 mps 748 mmHg 99%
    21:00 +8°C° 0 mm 2 mps 748 mmHg 98%
    22:00 +8°C° 0 mm 2 mps 748 mmHg 98%
    23:00 +8°C° 0 mm 3 mps 748 mmHg 98%

    Day after tomorrow, 22 July, Monday

    Time Temperature Precipitation Wind Pressure Humidity
    00:00 +8°C° 0 mm 3 mps 748 mmHg 97%
    01:00 +8°C° 0 mm 3 mps 748 mmHg 97%
    02:00 +8°C° 0 mm 3 mps 748 mmHg 96%
    03:00 +8°C° 0 mm 3 mps 748 mmHg 97%
    04:00 +7°C° 0 mm 3 mps 748 mmHg 97%
    05:00 +6°C° 0 mm 4 mps 748 mmHg 98%
    06:00 +5°C° 0 mm 4 mps 748 mmHg 98%
    07:00 +5°C° 0 mm 4 mps 748 mmHg 97%
    08:00 +5°C° 0 mm 4 mps 749 mmHg 97%
    09:00 +7°C° 0 mm 4 mps 749 mmHg 93%
    10:00 +8°C° 0 mm 4 mps 749 mmHg 88%
    11:00 +10°C° 0 mm 4 mps 749 mmHg 83%
    12:00 +11°C° 0 mm 3 mps 749 mmHg 82%
    13:00 +11°C° 0 mm 3 mps 749 mmHg 81%
    14:00 +11°C° 0 mm 3 mps 748 mmHg 80%
    15:00 +10°C° 0 mm 3 mps 749 mmHg 85%
    16:00 +9°C° 0 mm 3 mps 749 mmHg 91%
    17:00 +7°C° 0 mm 3 mps 749 mmHg 96%
    18:00 +7°C° 0 mm 2 mps 750 mmHg 96%
    19:00 +7°C° 0 mm 2 mps 750 mmHg 96%
    20:00 +7°C° 0 mm 2 mps 750 mmHg 95%
    21:00 +8°C° 0 mm 1 mps 751 mmHg 95%
    22:00 +8°C° 0 mm 1 mps 751 mmHg 95%
    23:00 +8°C° 0 mm 1 mps 751 mmHg 94%

    23 July, Tuesday

    Time Temperature Precipitation Wind Pressure Humidity
    00:00 +8°C° 0 mm 1 mps 751 mmHg 95%
    01:00 +7°C° 0 mm 1 mps 751 mmHg 95%
    02:00 +7°C° 0 mm 1 mps 751 mmHg 95%
    03:00 +7°C° 0 mm 1 mps 751 mmHg 95%
    04:00 +6°C° 0 mm 0 mps 751 mmHg 95%
    05:00 +5°C° 0 mm 0 mps 751 mmHg 95%
    06:00 +6°C° 0 mm 0 mps 752 mmHg 95%
    07:00 +7°C° 0 mm 1 mps 752 mmHg 96%
    08:00 +7°C° 0 mm 1 mps 752 mmHg 96%
    09:00 +9°C° 0 mm 1 mps 752 mmHg 90%
    10:00 +9°C° 0 mm 0 mps 752 mmHg 85%
    11:00 +10°C° 0 mm 0 mps 752 mmHg 80%
    12:00 +12°C° 0 mm 1 mps 752 mmHg 80%
    13:00 +12°C° 0 mm 1 mps 751 mmHg 79%
    14:00 +12°C° 0 mm 1 mps 751 mmHg 79%
    15:00 +9°C° 0 mm 2 mps 751 mmHg 85%
    16:00 +8°C° 0 mm 2 mps 751 mmHg 91%
    17:00 +6°C° 0 mm 2 mps 751 mmHg 96%
    18:00 +6°C° 0 mm 2 mps 751 mmHg 97%
    19:00 +5°C° 0 mm 3 mps 751 mmHg 97%
    20:00 +4°C° 0 mm 3 mps 751 mmHg 97%
    21:00 +4°C° 0 mm 3 mps 751 mmHg 96%
    22:00 +4°C° 0 mm 3 mps 751 mmHg 96%
    23:00 +4°C° 0 mm 3 mps 751 mmHg 95%

    24 July, Wednesday

    Time Temperature Precipitation Wind Pressure Humidity
    00:00 +4°C° 0 mm 3 mps 751 mmHg 95%
    01:00 +4°C° 0 mm 3 mps 750 mmHg 95%
    02:00 +4°C° 0 mm 3 mps 750 mmHg 94%
    03:00 +4°C° 0 mm 3 mps 750 mmHg 94%
    04:00 +3°C° 0 mm 3 mps 750 mmHg 94%
    05:00 +3°C° 0 mm 3 mps 750 mmHg 94%
    06:00 +3°C° 0 mm 3 mps 750 mmHg 92%
    07:00 +4°C° 0 mm 3 mps 750 mmHg 91%
    08:00 +4°C° 0 mm 3 mps 750 mmHg 89%
    09:00 +7°C° 0 mm 2 mps 750 mmHg 82%
    10:00 +9°C° 0 mm 2 mps 750 mmHg 75%
    11:00 +12°C° 0 mm 2 mps 750 mmHg 68%
    12:00 +12°C° 0 mm 2 mps 749 mmHg 66%
    13:00 +11°C° 0 mm 3 mps 749 mmHg 65%
    14:00 +12°C° 0 mm 3 mps 748 mmHg 64%
    15:00 +10°C° 0 mm 3 mps 748 mmHg 72%
    16:00 +8°C° 0 mm 3 mps 748 mmHg 81%
    17:00 +7°C° 0 mm 3 mps 749 mmHg 90%
    18:00 +5°C° 0 mm 3 mps 749 mmHg 89%
    19:00 +5°C° 0 mm 3 mps 749 mmHg 88%
    20:00 +4°C° 0 mm 3 mps 749 mmHg 87%
    21:00 +5°C° 0 mm 2 mps 749 mmHg 86%
    22:00 +5°C° 0 mm 2 mps 749 mmHg 85%
    23:00 +5°C° 0 mm 2 mps 749 mmHg 84%

    25 July, Thursday

    Time Temperature Precipitation Wind Pressure Humidity
    00:00 +5°C° 0 mm 2 mps 749 mmHg 84%
    01:00 +5°C° 0 mm 2 mps 749 mmHg 84%
    02:00 +5°C° 0 mm 2 mps 749 mmHg 85%
    03:00 +5°C° 0 mm 2 mps 749 mmHg 85%
    04:00 +4°C° 0 mm 2 mps 749 mmHg 85%
    05:00 +4°C° 0 mm 2 mps 749 mmHg 84%
    06:00 +5°C° 0 mm 2 mps 749 mmHg 83%
    07:00 +5°C° 0 mm 2 mps 749 mmHg 82%
    08:00 +5°C° 0 mm 2 mps 750 mmHg 81%
    09:00 +7°C° 0 mm 2 mps 750 mmHg 75%
    10:00 +9°C° 0 mm 2 mps 750 mmHg 70%
    11:00 +12°C° 0 mm 1 mps 750 mmHg 64%
    12:00 +12°C° 0 mm 2 mps 749 mmHg 65%
    13:00 +12°C° 0 mm 2 mps 749 mmHg 67%
    14:00 +12°C° 0 mm 2 mps 749 mmHg 69%
    15:00 +9°C° 0 mm 2 mps 749 mmHg 77%
    16:00 +7°C° 0 mm 2 mps 749 mmHg 85%
    17:00 +6°C° 0 mm 2 mps 750 mmHg 93%
    18:00 +5°C° 0 mm 2 mps 750 mmHg 93%
    19:00 +6°C° 0 mm 1 mps 750 mmHg 93%
    20:00 +6°C° 0 mm 1 mps 750 mmHg 92%
    21:00 +5°C° 0 mm 1 mps 750 mmHg 91%
    22:00 +5°C° 0 mm 1 mps 750 mmHg 90%
    23:00 +5°C° 0 mm 1 mps 750 mmHg 89%
    Show more